カタログに戻る

MANDRAKE 2 BAKER

運用中通信PO
NORAD 48908·PAYLOAD·🇺🇸 United States

打ち上げ Jun 30, 2021 から Cape Canaveral Space Force Station

Loading…

次のパス (今後24時間)

TLE

最新Source: Space-Track

元期: Sep 14, 2026, 13:09 UTC

1 48908U 21059AF  26257.54824061  .00028174  00000-0  29839-3 0  9994
2 48908  97.6937  97.9432 0003595  37.1010 323.0497 15.64103003291249

AllMySatでMANDRAKE 2 BAKERをリアルタイム追跡

Download on the App Store